METAR Formatted Surface Weather Observation
Issued by NWS

Home | Current Version | Previous Version | Text Only | Print | Product List | Glossary On
Versions: 1 2 3 4 5 6 7 8 9 10 11 12 13 14 15 16 17 18 19 20 21 22 23 24 25 26 27 28 29 30 31 32 33 34 35 36 37 38 39 40 41 42 43 44 45 46 47 48 49 50
000
SAUS46 KMFR 210557
MTRSXT
METAR KSXT 210556Z AUTO 14009KT 1/2SM SN FG VV005 00/00 A2957 RMK
AO2 SLP027 P0017 60069 T00000000 10039 20000 57012



USA.gov is the U.S. government's official web portal to all federal, state and local government web resources and services.